Barter Island, AK

1:35 PM AKST on November 22, 2017 (GMT -0900)
Barter Island LRRS

Weather History for PABA - March, 2013

Change the Weather History Date:

Sunday, March 17, 2013

  Actual Average Record
Temperature  
Mean Temperature -2 °F -  
Max Temperature -11 °F 0 °F 19 °F (2002)
Min Temperature -8 °F -13 °F -38 °F (2012)
Degree Days  
Heating Degree Days 67    
Moisture  
Dew Point -4 °F    
Average Humidity 86    
Maximum Humidity 92    
Minimum Humidity 79    
Precipitation  
Precipitation 0.00 in - - ()
Sea Level Pressure  
Sea Level Pressure 30.43 in    
Wind  
Wind Speed 12 mph (ENE)    
Max Wind Speed 15 mph    
Max Gust Speed -    
Visibility 10 miles    
Events      
Averages and records for this station are not official NWS values.
T = Trace of Precipitation, MM = Missing Value Source: NWS Daily Summary

Daily Weather History Graph

Daily Weather History Graph

Search for Another Location

Airport or City:

Trip Planner

Search our weather history database for the weather conditions in past years. The results will help you decide how hot, cold, wet, or windy it might be!

Date:

Astronomy

Mar. 17, 2013 Rise Set
Actual Time 7:45 AM AKDT 7:42 PM AKDT
Civil Twilight 6:43 AM AKDT 8:43 PM AKDT
Nautical Twilight 5:27 AM AKDT 10:01 PM AKDT
Astronomical Twilight 3:48 AM AKDT 11:43 PM AKDT
Moon 6:50 AM AKDT (3/17) 5:07 AM AKDT (3/17)
Length of Visible Light 13h 59m
Length of Day
11h 57m
Waxing Crescent, 33% of the Moon is Illuminated
Mar 17
Waxing Crescent
Mar 19
First Quarter
Mar 27
Full
Apr 2
Last Quarter
Apr 10
New

Hourly Weather History & Observations

Time (AKDT) Temp. Windchill Dew Point Humidity Pressure Visibility Wind Dir Wind Speed Gust Speed Precip Events Conditions
12:01 AM 1.9 °F -16.9 °F -2.0 °F 83% 30.38 in 10.0 mi East 15.0 mph - N/A   Clear
1:01 AM -0.0 °F -18.0 °F -2.0 °F 91% 30.38 in 10.0 mi ENE 12.7 mph - N/A   Clear
2:01 AM -0.0 °F -18.7 °F -2.0 °F 91% 30.38 in 10.0 mi East 13.8 mph - N/A   Clear
3:01 AM -0.9 °F -16.4 °F -4.0 °F 87% 30.39 in 10.0 mi East 9.2 mph - N/A   Clear
4:01 AM -2.0 °F -18.7 °F -5.1 °F 87% 30.40 in 10.0 mi East 10.4 mph - N/A   Clear
4:19 AM -2.2 °F -20.7 °F -5.8 °F 85% 30.40 in 10.0 mi East 12.7 mph - N/A   Scattered Clouds
4:28 AM -2.2 °F -20.7 °F -5.8 °F 85% 30.40 in 10.0 mi East 12.7 mph - N/A   Mostly Cloudy
4:42 AM -0.4 °F -19.2 °F -2.2 °F 92% 30.40 in 10.0 mi East 13.8 mph - N/A   Overcast
5:01 AM -0.0 °F -18.0 °F -2.9 °F 88% 30.40 in 10.0 mi East 12.7 mph - N/A   Mostly Cloudy
5:20 AM -0.4 °F -17.6 °F -4.0 °F 85% 30.40 in 10.0 mi East 11.5 mph - N/A   Scattered Clouds
5:57 AM -2.2 °F -21.5 °F -5.8 °F 85% 30.41 in 10.0 mi East 13.8 mph - N/A   Mostly Cloudy
6:01 AM -0.9 °F -19.9 °F -4.0 °F 87% 30.42 in 10.0 mi East 13.8 mph - N/A   Mostly Cloudy
6:39 AM -0.4 °F -18.4 °F -4.0 °F 85% 30.42 in 10.0 mi East 12.7 mph - N/A   Scattered Clouds
7:01 AM -2.0 °F -20.5 °F -5.1 °F 87% 30.43 in 10.0 mi East 12.7 mph - N/A   Clear
7:15 AM -2.2 °F -20.7 °F -5.8 °F 85% 30.43 in 10.0 mi East 12.7 mph - N/A   Partly Cloudy
7:58 AM -2.2 °F -19.9 °F -5.8 °F 85% 30.43 in 10.0 mi ENE 11.5 mph - N/A   Mostly Cloudy
8:01 AM -2.0 °F -19.6 °F -5.1 °F 87% 30.43 in 10.0 mi ENE 11.5 mph - N/A   Mostly Cloudy
8:33 AM -0.4 °F -18.4 °F -4.0 °F 85% 30.43 in 10.0 mi ENE 12.7 mph - N/A   Partly Cloudy
9:01 AM -0.9 °F -18.3 °F -4.0 °F 87% 30.44 in 10.0 mi ENE 11.5 mph - N/A   Clear
9:37 AM -0.4 °F -17.6 °F -4.0 °F 85% 30.45 in 10.0 mi East 11.5 mph - N/A   Partly Cloudy
10:01 AM -0.9 °F -18.3 °F -4.0 °F 87% 30.45 in 10.0 mi East 11.5 mph - N/A   Partly Cloudy
11:01 AM -0.0 °F - -4.0 °F 83% 30.45 in 10.0 mi North - - N/A   Clear
11:19 AM -0.4 °F -15.7 °F -2.2 °F 92% 30.46 in 10.0 mi East 9.2 mph - N/A   Scattered Clouds
11:28 AM 1.4 °F -11.3 °F -2.2 °F 85% 30.46 in 10.0 mi East 6.9 mph - N/A   Mostly Cloudy
11:52 AM 1.4 °F -12.5 °F -2.2 °F 85% 30.46 in 10.0 mi ENE 8.1 mph - N/A   Scattered Clouds
12:01 PM 1.0 °F -14.9 °F -2.0 °F 87% 30.47 in 10.0 mi ENE 10.4 mph - N/A   Partly Cloudy
1:01 PM 1.9 °F -10.6 °F -0.9 °F 88% 30.47 in 10.0 mi East 6.9 mph - N/A   Clear
2:01 PM 3.0 °F -8.0 °F -0.9 °F 84% 30.48 in 10.0 mi East 5.8 mph - N/A   Clear
3:01 PM 1.0 °F -14.0 °F -2.9 °F 83% 30.47 in 10.0 mi ENE 9.2 mph - N/A   Clear
4:01 PM -0.0 °F -14.2 °F -4.0 °F 83% 30.48 in 10.0 mi ENE 8.1 mph - N/A   Clear
5:01 PM -0.0 °F -13.0 °F -4.0 °F 83% 30.47 in 10.0 mi ENE 6.9 mph - N/A   Clear
6:01 PM -0.0 °F -7.9 °F -5.1 °F 79% 30.47 in 10.0 mi ENE 3.5 mph - N/A   Clear
7:01 PM -2.9 °F -16.5 °F -7.1 °F 82% 30.45 in 10.0 mi North 6.9 mph - N/A   Clear
8:01 PM -7.1 °F -23.9 °F -9.9 °F 87% 30.46 in 10.0 mi North 9.2 mph - N/A   Clear
9:01 PM -7.1 °F -22.8 °F -9.9 °F 87% 30.44 in 10.0 mi North 8.1 mph - N/A   Clear
10:01 PM -6.0 °F -21.5 °F -9.0 °F 87% 30.43 in 10.0 mi NW 8.1 mph - N/A   Clear
11:01 PM -8.0 °F -26.1 °F -11.9 °F 83% 30.41 in 10.0 mi NW 10.4 mph - N/A   Clear